Time,TemperatureF,DewpointF,PressureIn,WindDirection,WindDirectionDegrees,WindSpeedMPH,WindSpeedGustMPH,Humidity,HourlyPrecipIn,Conditions,Clouds,dailyrainin,SoftwareType,DateUTC
2013-07-12 00:11:00,66.1,56.0,30.07,SSW,211,1.0,2.0,70,0.00,,,0.00,weatherlink.com 1.10,2013-07-12 05:11:00,
2013-07-12 00:26:00,65.9,56.0,30.07,SSW,211,0.0,4.0,70,0.00,,,0.00,weatherlink.com 1.10,2013-07-12 05:26:00,
2013-07-12 00:41:00,65.7,56.0,30.08,South,178,0.0,4.0,71,0.00,,,0.00,weatherlink.com 1.10,2013-07-12 05:41:00,
2013-07-12 00:56:00,65.4,56.0,30.08,South,178,1.0,3.0,71,0.00,,,0.00,weatherlink.com 1.10,2013-07-12 05:56:00,
2013-07-12 01:11:00,65.1,56.0,30.07,SSW,192,0.0,4.0,72,0.00,,,0.00,weatherlink.com 1.10,2013-07-12 06:11:00,
2013-07-12 01:26:00,65.1,56.0,30.08,SSW,194,0.0,1.0,73,0.00,,,0.00,weatherlink.com 1.10,2013-07-12 06:26:00,
2013-07-12 01:42:00,64.8,56.0,30.07,NE,34,0.0,2.0,73,0.00,,,0.00,weatherlink.com 1.10,2013-07-12 06:42:00,
2013-07-12 01:57:00,64.3,56.0,30.08,NE,37,0.0,2.0,74,0.00,,,0.00,weatherlink.com 1.10,2013-07-12 06:57:00,
2013-07-12 02:12:00,63.9,56.0,30.07,SSW,202,0.0,3.0,75,0.00,,,0.00,weatherlink.com 1.10,2013-07-12 07:12:00,
2013-07-12 02:27:00,63.4,56.0,30.07,East,89,0.0,1.0,76,0.00,,,0.00,weatherlink.com 1.10,2013-07-12 07:27:00,
2013-07-12 02:42:00,63.0,56.0,30.07,East,89,0.0,1.0,77,0.00,,,0.00,weatherlink.com 1.10,2013-07-12 07:42:00,
2013-07-12 02:57:00,62.8,56.0,30.07,East,89,0.0,1.0,78,0.00,,,0.00,weatherlink.com 1.10,2013-07-12 07:57:00,
2013-07-12 03:12:00,62.7,56.0,30.07,East,90,0.0,1.0,79,0.00,,,0.00,weatherlink.com 1.10,2013-07-12 08:12:00,
2013-07-12 03:27:00,62.4,56.0,30.07,East,90,0.0,1.0,79,0.00,,,0.00,weatherlink.com 1.10,2013-07-12 08:27:00,
2013-07-12 03:42:00,62.0,56.0,30.07,East,90,0.0,1.0,80,0.00,,,0.00,weatherlink.com 1.10,2013-07-12 08:42:00,
2013-07-12 03:57:00,61.8,56.0,30.07,SE,138,0.0,3.0,80,0.00,,,0.00,weatherlink.com 1.10,2013-07-12 08:57:00,
2013-07-12 04:12:00,61.6,55.0,30.08,SE,138,0.0,1.0,80,0.00,,,0.00,weatherlink.com 1.10,2013-07-12 09:12:00,
2013-07-12 04:27:00,61.5,56.0,30.08,SE,138,0.0,1.0,81,0.00,,,0.00,weatherlink.com 1.10,2013-07-12 09:27:00,
2013-07-12 04:42:00,61.6,56.0,30.08,SE,138,0.0,2.0,81,0.00,,,0.00,weatherlink.com 1.10,2013-07-12 09:42:00,
2013-07-12 04:57:00,61.5,56.0,30.07,SSE,151,0.0,3.0,81,0.00,,,0.00,weatherlink.com 1.10,2013-07-12 09:57:00,
2013-07-12 05:12:00,61.4,55.0,30.07,SSE,153,0.0,2.0,80,0.00,,,0.00,weatherlink.com 1.10,2013-07-12 10:12:00,
2013-07-12 05:27:00,61.1,55.0,30.08,SSE,153,0.0,0.0,81,0.00,,,0.00,weatherlink.com 1.10,2013-07-12 10:27:00,
2013-07-12 05:42:00,61.0,55.0,30.09,SSE,153,0.0,1.0,81,0.00,,,0.00,weatherlink.com 1.10,2013-07-12 10:42:00,
2013-07-12 05:57:00,60.8,55.0,30.09,SSE,154,0.0,1.0,82,0.00,,,0.00,weatherlink.com 1.10,2013-07-12 10:57:00,
2013-07-12 06:12:00,60.8,55.0,30.09,SSE,154,0.0,1.0,82,0.00,,,0.00,weatherlink.com 1.10,2013-07-12 11:12:00,
2013-07-12 06:27:00,60.9,55.0,30.09,SSW,193,0.0,1.0,82,0.00,,,0.00,weatherlink.com 1.10,2013-07-12 11:27:00,
2013-07-12 06:42:00,61.1,56.0,30.09,South,171,0.0,3.0,82,0.00,,,0.00,weatherlink.com 1.10,2013-07-12 11:42:00,
2013-07-12 06:57:00,61.6,56.0,30.09,South,188,1.0,7.0,81,0.00,,,0.00,weatherlink.com 1.10,2013-07-12 11:57:00,
2013-07-12 07:12:00,62.3,56.0,30.08,ESE,117,0.0,3.0,80,0.00,,,0.00,weatherlink.com 1.10,2013-07-12 12:12:00,
2013-07-12 07:27:00,63.9,57.0,30.09,East,101,0.0,4.0,78,0.00,,,0.00,weatherlink.com 1.10,2013-07-12 12:27:00,
2013-07-12 07:42:00,65.9,57.0,30.09,South,181,0.0,4.0,74,0.00,,,0.00,weatherlink.com 1.10,2013-07-12 12:42:00,
2013-07-12 07:57:00,67.9,58.0,30.09,SSE,155,1.0,3.0,70,0.00,,,0.00,weatherlink.com 1.10,2013-07-12 12:57:00,
2013-07-12 08:12:00,69.4,58.0,30.09,SSE,168,0.0,4.0,68,0.00,,,0.00,weatherlink.com 1.10,2013-07-12 13:12:00,
2013-07-12 08:27:00,70.7,59.0,30.10,WSW,246,0.0,8.0,66,0.00,,,0.00,weatherlink.com 1.10,2013-07-12 13:27:00,
2013-07-12 08:42:00,72.4,59.0,30.09,SSE,166,0.0,6.0,63,0.00,,,0.00,weatherlink.com 1.10,2013-07-12 13:42:00,
2013-07-12 08:57:00,73.5,59.0,30.09,SW,227,1.0,5.0,61,0.00,,,0.00,weatherlink.com 1.10,2013-07-12 13:57:00,
2013-07-12 09:12:00,74.5,58.0,30.09,WNW,286,3.0,9.0,57,0.00,,,0.00,weatherlink.com 1.10,2013-07-12 14:12:00,
2013-07-12 09:27:00,75.5,59.0,30.08,SSW,205,5.0,8.0,56,0.00,,,0.00,weatherlink.com 1.10,2013-07-12 14:27:00,
2013-07-12 09:42:00,76.4,58.0,30.08,West,281,1.0,8.0,54,0.00,,,0.00,weatherlink.com 1.10,2013-07-12 14:42:00,
2013-07-12 09:58:00,77.8,59.0,30.08,SSW,210,0.0,9.0,53,0.00,,,0.00,weatherlink.com 1.10,2013-07-12 14:58:00,
2013-07-12 10:13:00,78.1,59.0,30.08,SSW,203,2.0,10.0,52,0.00,,,0.00,weatherlink.com 1.10,2013-07-12 15:13:00,
2013-07-12 10:28:00,78.8,60.0,30.07,SW,225,3.0,12.0,52,0.00,,,0.00,weatherlink.com 1.10,2013-07-12 15:28:00,
2013-07-12 10:43:00,79.3,60.0,30.07,SE,146,0.0,10.0,52,0.00,,,0.00,weatherlink.com 1.10,2013-07-12 15:43:00,
2013-07-12 10:58:00,80.0,60.0,30.07,SSW,203,3.0,8.0,50,0.00,,,0.00,weatherlink.com 1.10,2013-07-12 15:58:00,
2013-07-12 11:13:00,80.8,61.0,30.07,SSW,210,1.0,6.0,52,0.00,,,0.00,weatherlink.com 1.10,2013-07-12 16:13:00,
2013-07-12 11:28:00,81.3,61.0,30.07,SE,124,3.0,11.0,50,0.00,,,0.00,weatherlink.com 1.10,2013-07-12 16:28:00,
2013-07-12 11:43:00,81.4,60.0,30.07,South,183,0.0,10.0,49,0.00,,,0.00,weatherlink.com 1.10,2013-07-12 16:43:00,
2013-07-12 11:58:00,81.8,61.0,30.07,SW,217,4.0,9.0,49,0.00,,,0.00,weatherlink.com 1.10,2013-07-12 16:58:00,
2013-07-12 12:28:00,82.5,60.0,30.05,SSW,195,1.0,13.0,47,0.00,,,0.00,weatherlink.com 1.10,2013-07-12 17:28:00,
2013-07-12 12:43:00,82.1,60.0,30.05,SE,137,4.0,11.0,47,0.00,,,0.00,weatherlink.com 1.10,2013-07-12 17:43:00,
2013-07-12 12:58:00,82.8,60.0,30.05,SSW,205,0.0,13.0,46,0.00,,,0.00,weatherlink.com 1.10,2013-07-12 17:58:00,
2013-07-12 13:58:00,84.5,61.0,30.04,ESE,121,1.0,9.0,45,0.00,,,0.00,weatherlink.com 1.10,2013-07-12 18:58:00,
2013-07-12 14:13:00,84.5,60.0,30.04,NNE,24,1.0,9.0,44,0.00,,,0.00,weatherlink.com 1.10,2013-07-12 19:13:00,
2013-07-12 14:28:00,84.6,61.0,30.04,SSE,161,1.0,9.0,45,0.00,,,0.00,weatherlink.com 1.10,2013-07-12 19:28:00,
2013-07-12 14:43:00,85.0,60.0,30.04,ESE,105,2.0,11.0,43,0.00,,,0.00,weatherlink.com 1.10,2013-07-12 19:43:00,
2013-07-12 14:58:00,86.0,60.0,30.03,South,186,2.0,6.0,41,0.00,,,0.00,weatherlink.com 1.10,2013-07-12 19:58:00,
2013-07-12 15:13:00,85.8,59.0,30.03,East,98,0.0,8.0,40,0.00,,,0.00,weatherlink.com 1.10,2013-07-12 20:13:00,
2013-07-12 15:28:00,85.7,59.0,30.03,ESE,105,1.0,8.0,40,0.00,,,0.00,weatherlink.com 1.10,2013-07-12 20:28:00,
2013-07-12 15:43:00,86.0,59.0,30.03,ESE,119,3.0,15.0,40,0.00,,,0.00,weatherlink.com 1.10,2013-07-12 20:43:00,
2013-07-12 15:58:00,85.9,59.0,30.03,South,169,0.0,8.0,40,0.00,,,0.00,weatherlink.com 1.10,2013-07-12 20:58:00,
2013-07-12 16:13:00,85.5,59.0,30.02,South,177,3.0,15.0,41,0.00,,,0.00,weatherlink.com 1.10,2013-07-12 21:13:00,
2013-07-12 16:43:00,85.2,58.0,30.02,SE,132,3.0,10.0,40,0.00,,,0.00,weatherlink.com 1.10,2013-07-12 21:43:00,
2013-07-12 16:58:00,85.2,59.0,30.02,South,187,1.0,7.0,41,0.00,,,0.00,weatherlink.com 1.10,2013-07-12 21:58:00,
2013-07-12 17:13:00,85.0,59.0,30.02,ESE,121,0.0,7.0,42,0.00,,,0.00,weatherlink.com 1.10,2013-07-12 22:13:00,
2013-07-12 17:28:00,84.5,59.0,30.02,WSW,245,2.0,10.0,42,0.00,,,0.00,weatherlink.com 1.10,2013-07-12 22:28:00,
2013-07-12 17:43:00,84.5,60.0,30.02,ESE,111,3.0,10.0,43,0.00,,,0.00,weatherlink.com 1.10,2013-07-12 22:43:00,
2013-07-12 17:58:00,84.3,59.0,30.01,SW,217,2.0,5.0,43,0.00,,,0.00,weatherlink.com 1.10,2013-07-12 22:58:00,
2013-07-12 18:13:00,83.9,59.0,30.01,SSE,164,1.0,12.0,43,0.00,,,0.00,weatherlink.com 1.10,2013-07-12 23:13:00,
2013-07-12 18:28:00,83.2,58.0,30.01,SSE,164,1.0,9.0,43,0.00,,,0.00,weatherlink.com 1.10,2013-07-12 23:28:00,
2013-07-12 18:43:00,83.1,59.0,30.01,SSW,192,0.0,9.0,44,0.00,,,0.00,weatherlink.com 1.10,2013-07-12 23:43:00,
2013-07-12 18:58:00,82.3,59.0,30.01,WSW,242,1.0,9.0,45,0.00,,,0.00,weatherlink.com 1.10,2013-07-12 23:58:00,
2013-07-12 19:28:00,80.7,60.0,30.01,South,184,0.0,9.0,49,0.00,,,0.00,weatherlink.com 1.10,2013-07-13 00:28:00,
2013-07-12 19:43:00,79.6,60.0,30.00,ENE,59,1.0,9.0,51,0.00,,,0.00,weatherlink.com 1.10,2013-07-13 00:43:00,
2013-07-12 20:14:00,77.8,59.0,30.00,NE,45,1.0,10.0,53,0.00,,,0.00,weatherlink.com 1.10,2013-07-13 01:14:00,
2013-07-12 20:29:00,77.1,59.0,30.00,South,182,1.0,5.0,54,0.00,,,0.00,weatherlink.com 1.10,2013-07-13 01:29:00,
2013-07-12 20:59:00,75.7,59.0,30.00,South,181,1.0,4.0,56,0.00,,,0.00,weatherlink.com 1.10,2013-07-13 01:59:00,
2013-07-12 21:14:00,74.9,59.0,30.00,SSW,208,1.0,5.0,58,0.00,,,0.00,weatherlink.com 1.10,2013-07-13 02:14:00,
2013-07-12 21:29:00,74.0,59.0,30.00,South,190,0.0,4.0,59,0.00,,,0.00,weatherlink.com 1.10,2013-07-13 02:29:00,
2013-07-12 21:44:00,73.4,58.0,30.00,SW,214,0.0,7.0,58,0.00,,,0.00,weatherlink.com 1.10,2013-07-13 02:44:00,
2013-07-12 21:59:00,73.0,57.0,30.01,SSW,206,0.0,8.0,58,0.00,,,0.00,weatherlink.com 1.10,2013-07-13 02:59:00,
2013-07-12 22:14:00,72.5,57.0,30.01,ESE,109,0.0,6.0,58,0.00,,,0.00,weatherlink.com 1.10,2013-07-13 03:14:00,
2013-07-12 22:29:00,72.3,56.0,30.00,ESE,117,2.0,7.0,57,0.00,,,0.00,weatherlink.com 1.10,2013-07-13 03:29:00,
2013-07-12 22:44:00,71.9,56.0,30.00,South,176,0.0,4.0,57,0.00,,,0.00,weatherlink.com 1.10,2013-07-13 03:44:00,
2013-07-12 23:14:00,70.9,55.0,30.00,SSW,212,0.0,3.0,58,0.00,,,0.00,weatherlink.com 1.10,2013-07-13 04:14:00,
2013-07-12 23:29:00,70.3,55.0,30.01,East,88,0.0,3.0,59,0.00,,,0.00,weatherlink.com 1.10,2013-07-13 04:29:00,
2013-07-12 23:44:00,69.8,56.0,30.02,SSW,200,0.0,7.0,61,0.00,,,0.00,weatherlink.com 1.10,2013-07-13 04:44:00,
2013-07-12 23:59:00,69.2,56.0,30.03,South,170,1.0,5.0,63,0.00,,,0.00,weatherlink.com 1.10,2013-07-13 04:59:00,